This demonstration page uses our WeatherBlox Daily Observations layout. Learn more.

Left ArrowRight Arrow

Hourly Observations for October 25, 2015

Temp ( °F °C ) Dew Point ( °F °C ) Humidity (%) Winds ( mph kmh ) Pressure ( in mb ) Visibility ( mi km ) Precip ( " mm )
12:15 am 00:15 Clear 45 7 30 -1 57 57 SSE 5 7 30.27 1025 10 16 0.00 0.00
12:35 am 00:35 Clear 43 6 30 -1 61 61 S 6 9 30.30 1026 10 16 0.00 0.00
12:55 am 00:55 Clear 43 6 30 -1 61 61 S 5 7 30.30 1026 10 16 0.00 0.00
1:15 am 01:15 Clear 43 6 28 -2 57 57 S 5 7 30.30 1026 10 16 0.00 0.00
1:35 am 01:35 Clear 43 6 28 -2 57 57 S 6 9 30.30 1026 10 16 0.00 0.00
1:55 am 01:55 Clear 39 4 28 -2 65 65 S 6 9 30.30 1026 10 16 0.00 0.00
2:15 am 02:15 Clear 41 5 28 -2 61 61 S 5 7 30.30 1026 10 16 0.00 0.00
2:35 am 02:35 Clear 43 6 28 -2 57 57 S 5 7 30.30 1026 10 16 0.00 0.00
2:55 am 02:55 Clear 41 5 28 -2 61 61 S 5 7 30.30 1026 10 16 0.00 0.00
3:15 am 03:15 Clear 41 5 28 -2 61 61 S 5 7 30.30 1026 10 16 0.00 0.00
3:35 am 03:35 Clear 43 6 28 -2 57 57 S 3 6 30.30 1026 10 16 0.00 0.00
3:55 am 03:55 Clear 39 4 28 -2 65 65 S 7 11 30.33 1027 10 16 0.00 0.00
4:15 am 04:15 Clear 37 3 28 -2 70 70 S 8 13 30.33 1027 10 16 0.00 0.00
4:35 am 04:35 Clear 37 3 28 -2 70 70 S 8 13 30.33 1027 10 16 0.00 0.00
4:55 am 04:55 Clear 37 3 28 -2 70 70 SSW 7 11 30.36 1028 10 16 0.00 0.00
5:15 am 05:15 Clear 39 4 28 -2 65 65 S 7 11 30.33 1027 10 16 0.00 0.00
5:35 am 05:35 Clear 37 3 28 -2 70 70 SSW 6 9 30.36 1028 10 16 0.00 0.00
5:55 am 05:55 Clear 37 3 28 -2 70 70 S 6 9 30.36 1028 10 16 0.00 0.00
6:15 am 06:15 Clear 37 3 28 -2 70 70 SSW 7 11 30.36 1028 10 16 0.00 0.00
6:35 am 06:35 Clear 37 3 28 -2 70 70 S 7 11 30.36 1028 10 16 0.00 0.00
6:55 am 06:55 Clear 36 2 27 -3 70 70 S 7 11 30.36 1028 10 16 0.00 0.00
7:15 am 07:15 Clear 36 2 27 -3 70 70 S 7 11 30.36 1028 10 16 0.00 0.00
7:35 am 07:35 Clear 36 2 27 -3 70 70 S 8 13 30.36 1028 10 16 0.00 0.00
7:55 am 07:55 Clear 36 2 27 -3 70 70 S 7 11 30.36 1028 10 16 0.00 0.00
8:15 am 08:15 Sunny 36 2 27 -3 70 70 S 6 9 30.36 1028 10 16 0.00 0.00
8:35 am 08:35 Sunny 37 3 28 -2 70 70 S 7 11 30.36 1028 10 16 0.00 0.00
8:55 am 08:55 Sunny 37 3 30 -1 75 75 S 9 15 30.36 1028 10 16 0.00 0.00
9:15 am 09:15 Sunny 43 6 34 1 71 71 S 9 15 30.33 1027 10 16 0.00 0.00
9:35 am 09:35 Sunny 46 8 36 2 66 66 SSW 8 13 30.30 1026 10 16 0.00 0.00
9:55 am 09:55 Sunny 48 9 36 2 62 62 SSW 10 17 30.30 1026 10 16 0.00 0.00
10:15 am 10:15 Sunny 52 11 36 2 54 54 SSW 13 20 30.27 1025 10 16 0.00 0.00
10:35 am 10:35 Sunny 55 13 37 3 51 51 SSW 13 20 30.27 1025 10 16 0.00 0.00
10:55 am 10:55 Sunny 57 14 36 2 44 44 SSW 14 22 30.27 1025 10 16 0.00 0.00
11:15 am 11:15 Sunny 59 15 36 2 42 42 S 16 26 30.24 1024 10 16 0.00 0.00
11:35 am 11:35 Sunny 61 16 34 1 36 36 S 17 28 30.24 1024 10 16 0.00 0.00
11:55 am 11:55 Sunny 61 16 32 0 34 34 SSW 16 26 30.24 1024 10 16 0.00 0.00
12:15 pm 12:15 Sunny 63 17 32 0 32 32 S 15 24 30.24 1024 10 16 0.00 0.00
12:35 pm 12:35 Sunny 64 18 32 0 30 30 S 17 28 30.24 1024 10 16 0.00 0.00
12:55 pm 12:55 Sunny 64 18 32 0 30 30 S 17 28 30.18 1022 10 16 0.00 0.00
1:15 pm 13:15 Sunny 64 18 32 0 30 30 S 18 30 30.18 1022 10 16 0.00 0.00
1:35 pm 13:35 Sunny 66 19 30 -1 26 26 S 20 31 30.15 1021 10 16 0.00 0.00
1:55 pm 13:55 Sunny 66 19 30 -1 26 26 S 18 30 30.15 1021 10 16 0.00 0.00
2:15 pm 14:15 Sunny 66 19 32 0 28 28 S 18 30 30.15 1021 10 16 0.00 0.00
2:35 pm 14:35 Sunny 66 19 32 0 28 28 S 17 28 30.15 1021 10 16 0.00 0.00
2:55 pm 14:55 Sunny 68 20 32 0 26 26 S 17 28 30.12 1020 10 16 0.00 0.00
3:15 pm 15:15 Sunny 68 20 34 1 28 28 S 17 28 30.12 1020 10 16 0.00 0.00
3:35 pm 15:35 Sunny 66 19 34 1 30 30 S 15 24 30.12 1020 10 16 0.00 0.00
3:55 pm 15:55 Sunny 66 19 34 1 30 30 S 18 30 30.12 1020 10 16 0.00 0.00
4:15 pm 16:15 Sunny 66 19 34 1 30 30 S 15 24 30.12 1020 10 16 0.00 0.00
4:35 pm 16:35 Sunny 66 19 34 1 30 30 SSE 16 26 30.12 1020 10 16 0.00 0.00
4:55 pm 16:55 Sunny 66 19 34 1 30 30 SSE 15 24 30.12 1020 10 16 0.00 0.00
5:15 pm 17:15 Sunny 66 19 34 1 30 30 SSE 18 30 30.12 1020 10 16 0.00 0.00
5:35 pm 17:35 Sunny 64 18 32 0 30 30 SSE 17 28 30.12 1020 10 16 0.00 0.00
5:55 pm 17:55 Sunny 64 18 34 1 32 32 SSE 14 22 30.12 1020 10 16 0.00 0.00
6:15 pm 18:15 Sunny 63 17 34 1 34 34 SSE 14 22 30.15 1021 10 16 0.00 0.00
6:35 pm 18:35 Sunny 61 16 34 1 36 36 SSE 12 19 30.15 1021 10 16 0.00 0.00
6:55 pm 18:55 Clear 57 14 34 1 41 41 SSE 13 20 30.15 1021 10 16 0.00 0.00
7:15 pm 19:15 Clear 55 13 34 1 44 44 SSE 12 19 30.18 1022 10 16 0.00 0.00
7:35 pm 19:35 Clear 55 13 34 1 44 44 SSE 13 20 30.18 1022 10 16 0.00 0.00
7:55 pm 19:55 Clear 54 12 34 1 47 47 SSE 13 20 30.18 1022 10 16 0.00 0.00
8:15 pm 20:15 Clear 54 12 34 1 47 47 SSE 13 20 30.18 1022 10 16 0.00 0.00
8:35 pm 20:35 Clear 54 12 32 0 44 44 SSE 13 20 30.18 1022 10 16 0.00 0.00
8:55 pm 20:55 Clear 54 12 32 0 44 44 SSE 13 20 30.18 1022 10 16 0.00 0.00
9:15 pm 21:15 Clear 52 11 32 0 47 47 SSE 13 20 30.18 1022 10 16 0.00 0.00
9:35 pm 21:35 Clear 52 11 32 0 47 47 SSE 12 19 30.18 1022 10 16 0.00 0.00
9:55 pm 21:55 Clear 48 9 32 0 54 54 S 12 19 30.21 1023 10 16 0.00 0.00
10:15 pm 22:15 Clear 48 9 30 -1 50 50 S 10 17 30.21 1023 10 16 0.00 0.00
10:35 pm 22:35 Clear 46 8 30 -1 53 53 S 8 13 30.21 1023 10 16 0.00 0.00
10:55 pm 22:55 Clear 45 7 30 -1 57 57 S 8 13 30.21 1023 10 16 0.00 0.00
11:15 pm 23:15 Clear 43 6 30 -1 61 61 SSE 8 13 30.24 1024 10 16 0.00 0.00
11:35 pm 23:35 Clear 45 7 30 -1 57 57 SSE 9 15 30.21 1023 10 16 0.00 0.00
11:55 pm 23:55 Clear 46 8 30 -1 53 53 SSE 8 13 30.21 1023 10 16 0.00 0.00

Powered by AerisWeather